New York Downtown Manhattan/w, NY

12:08 PM EDT on July 16, 2019 (GMT -0400)
New York Downtown Manhattan/w

Weather History for KJRB - May, 2019

Change the Weather History Date:

Thursday, May 23, 2019

  Actual Average (WUND) Record (WUND)
Temperature  
Mean Temperature 64 °F -  
Max Temperature 73 °F - - (-1)
Min Temperature 55 °F - - (-1)
Degree Days  
Heating Degree Days 1    
Growing Degree Days 14 (Base 50)    
Moisture  
Dew Point 57 °F    
Average Humidity 77    
Maximum Humidity 94    
Minimum Humidity 54    
Precipitation  
Precipitation 0.37 in - - ()
Sea Level Pressure  
Sea Level Pressure 30.07 in    
Wind  
Wind Speed 5 mph ()    
Max Wind Speed 12 mph    
Max Gust Speed 37 mph    
Visibility 9.3 miles    
Events Rain , Thunderstorm    
Averages and records for this station are not official NWS values.
T = Trace of Precipitation, MM = Missing Value Source: Averaged Metar Reports

Daily Weather History Graph

Daily Weather History Graph

Search for Another Location

Airport or City:

Astronomy

May. 23, 2019 Rise Set
Actual Time 5:32 AM EDT 8:13 PM EDT
Civil Twilight 5:00 AM EDT 8:45 PM EDT
Nautical Twilight 4:20 AM EDT 9:25 PM EDT
Astronomical Twilight 3:35 AM EDT 10:10 PM EDT
Moon No Moon Rise 9:33 AM EDT (5/23)
Length of Visible Light 15h 44m
Length of Day
14h 41m
Waning Gibbous, 77% of the Moon is Illuminated
May 23
Waning Gibbous
May 26
Last Quarter
Jun 3
New
Jun 10
First Quarter
Jun 17
Full

Hourly Weather History & Observations

Time (EDT) Temp. Dew Point Humidity Pressure Visibility Wind Dir Wind Speed Gust Speed Precip Events Conditions
12:56 AM 64.0 °F 48.0 °F 56% 30.22 in 10.0 mi WSW 6.9 mph - N/A   Mostly Cloudy
1:56 AM 64.0 °F 46.9 °F 54% 30.21 in 10.0 mi West 5.8 mph - N/A   Clear
2:56 AM 63.0 °F 46.0 °F 54% 30.19 in 10.0 mi West 4.6 mph - N/A   Clear
4:56 AM 62.1 °F 50.0 °F 65% 30.24 in 10.0 mi West 5.8 mph - 0.00 in   Overcast
5:56 AM 60.1 °F 53.1 °F 78% 30.23 in 10.0 mi WSW 3.5 mph - 0.01 in Rain Light Rain
6:41 AM 59.0 °F 53.6 °F 82% 30.25 in 10.0 mi WSW 5.8 mph - 0.03 in Rain , Thunderstorm Light Rain
6:56 AM 57.9 °F 54.0 °F 87% 30.25 in 9.0 mi SW 6.9 mph - 0.04 in Rain , Thunderstorm Light Rain
7:52 AM 57.2 °F 53.6 °F 88% 30.21 in 9.0 mi West 10.4 mph - 0.14 in Rain Light Rain
7:56 AM 57.0 °F 53.1 °F 87% 30.22 in 10.0 mi West 9.2 mph - 0.14 in Rain Light Rain
8:33 AM 57.2 °F 51.8 °F 82% 30.23 in 10.0 mi WSW 4.6 mph - 0.02 in Rain , Thunderstorm Light Rain
8:37 AM 55.4 °F 51.8 °F 88% 30.23 in 10.0 mi Variable 4.6 mph - 0.02 in Rain , Thunderstorm Light Rain
8:56 AM 57.0 °F 53.1 °F 87% 30.22 in 10.0 mi Calm Calm - 0.02 in Rain Light Rain
9:56 AM 61.0 °F 53.1 °F 75% 30.20 in 10.0 mi Variable 5.8 mph - 0.01 in   Mostly Cloudy
10:56 AM 61.0 °F 51.1 °F 70% 30.17 in 10.0 mi Variable 5.8 mph - 0.00 in Rain Light Rain
11:56 AM 64.0 °F 51.1 °F 63% 30.15 in 10.0 mi WSW 9.2 mph 19.6 mph 0.00 in   Partly Cloudy
12:56 PM 66.9 °F 54.0 °F 63% 30.12 in 10.0 mi WSW 5.8 mph - 0.00 in   Partly Cloudy
1:56 PM 70.0 °F 55.9 °F 61% 30.07 in 10.0 mi SSW 11.5 mph - N/A   Clear
2:56 PM 72.0 °F 57.0 °F 59% 30.03 in 10.0 mi SSW 9.2 mph - N/A   Scattered Clouds
3:32 PM 73.4 °F 57.2 °F 57% 30.01 in 10.0 mi SW 9.2 mph 28.8 mph N/A Thunderstorm Partly Cloudy
3:56 PM 71.1 °F 57.9 °F 63% 30.00 in 10.0 mi West 6.9 mph 36.8 mph 0.00 in Rain , Thunderstorm Light Thunderstorms and Rain
4:09 PM 69.8 °F 60.8 °F 73% 30.02 in 1.5 mi Calm Calm - 0.09 in Rain , Thunderstorm Rain
4:16 PM 68.0 °F 62.6 °F 83% 30.00 in 1.2 mi SW 5.8 mph - 0.13 in Rain Light Rain
4:25 PM 66.2 °F 62.6 °F 88% 30.00 in 7.0 mi SW 3.5 mph - 0.14 in Rain Light Rain
4:53 PM 66.2 °F 62.6 °F 88% 29.99 in 10.0 mi SSE 4.6 mph - 0.14 in   Mostly Cloudy
4:56 PM 66.0 °F 63.0 °F 90% 29.98 in 10.0 mi Calm Calm - 0.14 in   Mostly Cloudy
5:03 PM 66.2 °F 62.6 °F 88% 29.98 in 10.0 mi SSW 3.5 mph - N/A   Scattered Clouds
5:56 PM 66.0 °F 62.1 °F 87% 29.95 in 10.0 mi SW 6.9 mph - N/A   Clear
6:56 PM 66.9 °F 61.0 °F 81% 29.94 in 10.0 mi SW 6.9 mph - 0.01 in   Clear
7:56 PM 66.0 °F 61.0 °F 84% 29.90 in 10.0 mi South 3.5 mph - N/A   Clear
8:56 PM 66.0 °F 62.1 °F 87% 29.88 in 10.0 mi West 4.6 mph - N/A   Clear
9:56 PM 66.0 °F 63.0 °F 90% 29.87 in 10.0 mi West 6.9 mph - N/A   Clear
10:09 PM 64.4 °F 62.6 °F 94% 29.86 in 10.0 mi West 6.9 mph - N/A   Partly Cloudy
10:56 PM 66.9 °F 64.9 °F 93% 29.86 in 10.0 mi West 8.1 mph - N/A   Scattered Clouds
11:56 PM 68.0 °F 64.9 °F 90% 29.82 in 10.0 mi West 11.5 mph - 0.00 in   Clear